User: anonymous
Location: Unspecified
(0.0000°N, 0.0000°E)
Time: 01:38:00
(UTC+02:00)
Language:

ARIANE 5 R/B - Orbit

View from above orbital plane
View from above orbital plane
View from above satellite
View from above satellite

Ground track
Ground track

The orbit data is extracted from the following two-line orbital elements,

1 28379U 04027B   14107.94224856  .00000025  00000-0  50595-3 0  6211
2 28379 007.2338 359.5675 7295014 023.5073 357.4732 02.07924147 74088
Epoch (UTC): 17 April 2014 22:36:50
Eccentricity: 0.7295014
inclination: 7.2338°
perigee height: 636 km
apogee height: 38467 km
right ascension of ascending node: 359.5675°
argument of perigee: 23.5073°
revolutions per day: 2.07924147
mean anomaly at epoch: 357.4732°
orbit number at epoch: 7408

The dashed part of the orbit path shows where the satellite is in the earth's shadow,  

DLR